FW6385 Weather Reports


time (UTC)temp
F
wind
direction
speed
knots
gust
knots
rain 1hr
in
rain 24hr
in
rain mn
in
humidity
%
barometer
mb
20260510103504 56 180 2.6 7.0 0.00 0.01 0.01 86 1029.1
20260510093500 58 180 1.7 4.3 0.00 0.01 0.01 83 1028.8
20260510083459 60 237 1.7 7.0 0.00 0.01 0.01 78 1028.6
20260510073502 62 180 3.5 8.7 0.00 0.01 0.01 72 1027.9
20260510063455 64 180 3.5 7.8 0.00 0.01 0.01 68 1027.7
20260510053455 66 180 3.5 8.7 0.00 0.01 0.01 64 1027.6
20260510043454 65 180 3.5 7.8 0.00 0.01 0.01 64 1027.6
20260510040456 64 180 2.6 5.2 0.00 0.02 0.01 65 1027.9
20260510030449 62 180 0.9 7.8 0.00 0.02 0.01 68 1028.8
20260510013448 60 180 2.6 8.7 0.00 0.02 0.01 71 1029.5
20260510003449 59 180 2.6 5.2 0.00 0.02 0.01 76 1029.6
20260509233445 58 180 2.6 7.8 0.00 0.02 0.01 77 1029.5
20260509223446 57 180 2.6 7.0 0.00 0.02 0.01 82 1029.1
20260509213446 56 180 1.7 3.5 0.00 0.02 0.01 89 1028.5
20260509203446 55 180 1.7 4.3 0.00 0.02 0.01 91 1028.1
20260509193451 54 180 0.9 2.6 0.00 0.02 0.01 93 1027.3
20260509193445 54 180 1.7 4.3 0.00 0.02 0.01 93 1027.8
20260509180444 54 180 0.0 3.5 0.01 0.02 0.01 93 1027.2
20260509163444 54 180 0.0 5.2 0.00 0.02 0.00 93 1027.5
20260509153447 55 180 2.6 3.5 0.00 0.02 0.00 91 1027.6
20260509143444 56 180 0.0 2.6 0.00 0.02 0.00 90 1027.8
20260509140445 56 180 0.0 6.1 0.00 0.02 0.02 89 1027.9
20260509130443 56 180 2.6 8.7 0.00 0.02 0.02 89 1027.9
20260509113441 56 180 3.5 7.8 0.00 0.02 0.02 89 1027.7